Printer-friendly version

IAU Minor Planet Center

Minor Planet Center

MPEC 2006-J48 : 2006 JE42

The following Minor Planet Electronic Circular may be linked-to from your own Web pages, but must not otherwise be redistributed electronically.


Read MPEC 2006-J47 Read MPEC 2006-J49


M.P.E.C. 2006-J48                                Issued 2006 May 12, 15:22 UT

     The Minor Planet Electronic Circulars contain information on unusual
         minor planets and routine data on comets.  They are published
   on behalf of Commission 20 of the International Astronomical Union by the
          Minor Planet Center, Smithsonian Astrophysical Observatory,
                          Cambridge, MA 02138, U.S.A.

                  Supported in part by the Brinson Foundation
                  Supported in part by the TABASGO Foundation
             Prepared using the Tamkin Foundation Computer Network

                              MPC@CFA.HARVARD.EDU
          URL http://cfa-www.harvard.edu/iau/mpc.html  ISSN 1523-6714

                                   2006 JE42

Observations:
     K06J42E* C2006 05 10.61817 19 17 13.34 -58 08 55.5          18.1 V EJ048E12
     K06J42E  C2006 05 10.62824 19 17 22.34 -58 08 53.9          18.1 V EJ048E12
     K06J42E  C2006 05 10.63831 19 17 31.27 -58 08 53.6          18.1 V EJ048E12
     K06J42E  C2006 05 10.64841 19 17 40.27 -58 08 50.8          18.1 V EJ048E12
     K06J42E  C2006 05 10.70146 19 18 27.25 -58 08 40.3          18.0 V EJ048E12
     K06J42E  C2006 05 10.70211 19 18 27.79 -58 08 40.3          18.1 V EJ048E12
     K06J42E  C2006 05 10.70278 19 18 28.44 -58 08 40.3          18.0 V EJ048E12
     K06J42E  C2006 05 10.70343 19 18 28.94 -58 08 40.2          18.0 V EJ048E12
     K06J42E  C2006 05 10.70535 19 18 30.63 -58 08 39.9          18.3 V EJ048E12
     K06J42E  C2006 05 10.72190 19 18 45.21 -58 08 35.6          18.2 V EJ048E12
     K06J42E  C2006 05 10.73253 19 18 54.61 -58 08 31.5          17.6 V EJ048E12
     K06J42E  C2006 05 10.74161 19 19 02.60 -58 08 29.3          18.0 V EJ048E12
     K06J42E  C2006 05 10.81566 19 20 07.72 -58 07 59.7          17.9 V EJ048E12
     K06J42E  C2006 05 10.81633 19 20 08.37 -58 07 59.1          18.0 V EJ048E12
     K06J42E  C2006 05 10.81698 19 20 08.95 -58 07 59.0          17.8 V EJ048E12
     K06J42E  C2006 05 10.82047 19 20 12.01 -58 07 57.3          18.0 V EJ048E12
     K06J42E  C2006 05 10.82150 19 20 12.98 -58 07 57.3          18.4 V EJ048E12
     K06J42E  C2006 05 10.82256 19 20 13.81 -58 07 55.8          18.0 V EJ048E12
     K06J42E  C2006 05 10.82354 19 20 14.89 -58 07 56.2          17.8 V EJ048E12
     K06J42E %C2006 05 11.40749 19 29 07.52 -58 03 02.5          18.2 R EJ048807
     K06J42E %C2006 05 11.41128 19 29 10.83 -58 02 59.8          18.1 R EJ048807
     K06J42E %C2006 05 11.41491 19 29 14.00 -58 02 57.2          18.1 R EJ048807
     K06J42E %C2006 05 11.41838 19 29 17.00 -58 02 55.2          18.1 R EJ048807

Observer details:
807 Cerro Tololo.  Observer W. H. Ryan.  1.0-m f/10.0 reflector + CCD.
E12 Siding Spring Survey.  Observer R. H. McNaught.  Measurers E. C. Beshore,
    E. J. Christensen, G. J. Garradd, A. R. Gibbs, A. D. Grauer, R. E. Hill,
    R. A. Kowalski, S. M. Larson, R. H. McNaught.  0.5-m Uppsala Schmidt + CCD.

Orbital elements:
2006 JE42                                                Earth MOID = 0.1160 AU
Epoch 2006 Mar. 6.0 TT = JDT 2453800.5                  MPC
M 341.02403              (2000.0)            P               Q
n   0.22506452     Peri.  270.15470     -0.24065741     +0.97033719
a   2.6766897      Node   345.85582     -0.84884834     -0.22190741
e   0.5980407      Incl.    5.40465     -0.47068090     -0.09593145
P   4.38           H   19.8           G   0.15           U   8
Residuals in seconds of arc
060510 E12  0.2+  0.0     060510 E12  0.3-  0.3-    060510 E12  0.3+  0.5-
060510 E12  0.2+  0.4+    060510 E12  0.4-  0.6-    060510 E12  0.5-  0.5+
060510 E12  0.1-  0.7-    060510 E12  0.1-  0.4+    060510 E12  1.2+  0.3-
060510 E12  0.0   0.6+    060510 E12  0.1-  0.3-    060511 807  0.0   0.0
060510 E12  0.1+  0.3+    060510 E12  0.5-  0.1-    060511 807  0.0   0.1+
060510 E12  0.1-  0.1+    060510 E12  0.1-  0.2+    060511 807  0.1+  0.2+
060510 E12  0.3+  0.1-    060510 E12  0.0   0.0     060511 807  0.1-  0.3-
060510 E12  0.3-  0.1-    060510 E12  0.2-  0.0

Ephemeris:
2006 JE42                a,e,i = 2.68, 0.60, 5                   q = 1.0759
Date    TT    R. A. (2000) Decl.     Delta      r     Elong.  Phase     V
2006 05 05    17 52.81   -56 43.8    0.172    1.120   126.6    46.3    18.0
2006 05 15    20 20.77   -56 43.0    0.168    1.091   114.5    57.4    18.2
2006 05 25    22 02.26   -48 31.2    0.181    1.077   106.1    64.6    18.5
2006 06 04    22 53.26   -39 23.8    0.204    1.078   102.8    66.5    18.9
2006 06 14    23 19.03   -31 56.9    0.231    1.094   103.9    64.3    19.1
2006 06 24    23 31.36   -26 18.4    0.258    1.125   108.3    59.1    19.2
2006 07 04    23 34.57   -22 08.3    0.285    1.167   115.3    52.0    19.3
2006 07 14    23 30.58   -19 06.0    0.311    1.220   124.5    43.4    19.4
2006 07 24    23 20.61   -16 56.0    0.340    1.281   135.4    33.8    19.4
2006 08 03    23 06.28   -15 24.2    0.376    1.348   147.7    23.7    19.4
2006 08 13    22 50.12   -14 17.0    0.423    1.419   160.6    13.7    19.5
2006 08 23    22 34.76   -13 24.6    0.485    1.494   173.0     4.7    19.5
2006 09 02    22 22.35   -12 39.2    0.564    1.571   173.1     4.5    19.9
2006 09 12    22 14.03   -11 55.6    0.662    1.649   162.1    10.8    20.7
2006 09 22    22 09.90   -11 11.3    0.776    1.727   151.7    16.0    21.3
2006 10 02    22 09.61   -10 24.1    0.908    1.805   142.1    19.9    21.9

Kyle E. Smalley              (C) Copyright 2006 MPC           M.P.E.C. 2006-J48

Read MPEC 2006-J47 Read MPEC 2006-J49


Our Web policy. Index to the CBAT/MPC/ICQ pages.


Valid HTML 4.01!